User: anonymous   Login
Location: Caltech
(34.1382°N, 118.1253°W)
Time: 08:21:12
(UTC-08:00)
Language:

Cosmos 1939 Rocket - Orbit

View from above orbital plane
View from above orbital plane
View from above satellite
View from above satellite

Ground track
Ground track

The orbit data is extracted from the following two-line orbital elements,

1 19046U 88032B   14351.47993577  .00003561  00000-0  28509-3 0   764
2 19046 097.6207 042.6185 0038668 193.0822 166.9402 15.00218856435674
Epoch (UTC): 17 December 2014 11:31:06
Eccentricity: 0.0038668
inclination: 97.6207°
perigee height: 539 km
apogee height: 593 km
right ascension of ascending node: 42.6185°
argument of perigee: 193.0822°
revolutions per day: 15.00218856
mean anomaly at epoch: 166.9402°
orbit number at epoch: 43567

The dashed part of the orbit path shows where the satellite is in the earth's shadow,  

DLR